TimeAST,TemperatureF,Dew PointF,Humidity,Sea Level PressureIn,VisibilityMPH,Wind Direction,Wind SpeedMPH,Gust SpeedMPH,PrecipitationIn,Events,Conditions,WindDirDegrees,DateUTC
12:00 AM,33.8,33.8,100,29.41,15.0,SSW,4.6,-,N/A,,Overcast,210,2013-02-21 04:00:00
1:00 AM,33.8,32.0,93,29.42,15.0,SW,5.8,-,N/A,,Overcast,220,2013-02-21 05:00:00
2:00 AM,33,32,95,29.43,15,SW,2.3,,,,Partly Cloudy,230,2013-02-21 06:00:00
2:00 AM,32.0,32.0,100,29.43,15.0,SW,3.5,-,N/A,,Overcast,220,2013-02-21 06:00:00
3:00 AM,32.0,32.0,100,29.43,15.0,SW,2.3,-,N/A,,Overcast,230,2013-02-21 07:00:00
4:00 AM,32.0,30.2,93,29.44,15.0,SSW,6.9,-,N/A,,Overcast,210,2013-02-21 08:00:00
5:00 AM,32.0,30.2,93,29.44,15.0,WSW,2.3,-,N/A,,Overcast,240,2013-02-21 09:00:00
6:00 AM,32.0,30.2,93,29.45,15.0,SW,6.9,-,N/A,,Overcast,220,2013-02-21 10:00:00
7:00 AM,30.2,28.4,93,29.46,15.0,SW,6.9,-,N/A,,Mostly Cloudy,220,2013-02-21 11:00:00
7:27 AM,30.2,30.2,100,29.47,12.0,WSW,4.6,-,N/A,,Mostly Cloudy,240,2013-02-21 11:27:00
7:42 AM,30.2,30.2,100,29.48,12.0,West,2.3,-,N/A,,Overcast,270,2013-02-21 11:42:00
8:00 AM,31,30,95,29.49,12,Calm,Calm,,,Snow,Light Snow Showers,,2013-02-21 12:00:00
8:00 AM,30.2,30.2,100,29.48,12.0,Calm,Calm,-,N/A,Snow,Light Snow Showers,0,2013-02-21 12:00:00
9:00 AM,32.0,30.2,93,29.50,12.0,NW,3.5,-,N/A,Snow,Light Snow Showers,320,2013-02-21 13:00:00
10:00 AM,32.0,30.2,93,29.51,12.0,NW,3.5,-,N/A,Snow,Light Snow Showers,320,2013-02-21 14:00:00
10:13 AM,32.0,30.2,93,29.51,12.0,NW,4.6,-,N/A,Snow,Light Snow Showers,310,2013-02-21 14:13:00
12:00 PM,32.0,30.2,93,29.53,12.0,WNW,3.5,-,N/A,Snow,Light Snow Showers,290,2013-02-21 16:00:00
1:00 PM,32.0,30.2,93,29.54,12.0,WNW,6.9,-,N/A,Snow,Light Snow Showers,300,2013-02-21 17:00:00
1:49 PM,32.0,32.0,100,29.55,7.0,NW,8.1,-,N/A,Snow,Light Snow Showers,320,2013-02-21 17:49:00
2:00 PM,32,31,97,29.55,3,NW,6.9,,,Snow,Light Snow Showers,320,2013-02-21 18:00:00
2:00 PM,32.0,32.0,100,29.55,3.0,NNW,5.8,-,N/A,Snow,Light Snow Showers,330,2013-02-21 18:00:00
2:37 PM,32.0,30.2,93,29.56,2.0,NNW,8.1,-,N/A,Snow,Light Snow,330,2013-02-21 18:37:00
3:35 PM,32.0,30.2,93,29.58,4.0,NNE,17.3,-,N/A,Snow,Light Snow,30,2013-02-21 19:35:00
4:00 PM,32.0,30.2,93,29.59,4.0,NNE,17.3,-,N/A,Snow,Light Snow,30,2013-02-21 20:00:00
4:42 PM,30.2,30.2,100,29.60,2.0,NNE,19.6,25.3,N/A,Snow,Light Snow,30,2013-02-21 20:42:00
5:00 PM,30.2,30.2,100,29.61,1.5,NNE,19.6,26.5,N/A,Snow,Light Snow,30,2013-02-21 21:00:00
5:45 PM,30.2,30.2,100,29.63,1.0,NNE,23.0,28.8,N/A,Snow,Light Snow,30,2013-02-21 21:45:00
6:00 PM,30.2,30.2,100,29.64,1.0,NNE,23.0,32.2,N/A,Snow,Light Snow,20,2013-02-21 22:00:00
6:48 PM,30.2,30.2,100,29.67,1.5,NNE,24.2,33.4,N/A,Snow,Light Snow,30,2013-02-21 22:48:00
7:00 PM,30.2,30.2,100,29.68,1.5,NNE,25.3,33.4,N/A,Snow,Light Snow,30,2013-02-21 23:00:00
8:00 PM,30,29,96,29.71,3,NNE,27.6,,,Snow,Light Snow,20,2013-02-22 00:00:00
8:00 PM,30.2,30.2,100,29.71,3.0,NNE,27.6,36.8,N/A,Snow,Light Snow,20,2013-02-22 00:00:00
9:00 PM,30.2,30.2,100,29.75,5.0,NNE,27.6,41.4,N/A,Snow,Light Snow,20,2013-02-22 01:00:00
10:00 PM,30.2,28.4,93,29.78,5.0,NNE,25.3,38.0,N/A,Snow,Light Snow,30,2013-02-22 02:00:00